Goodland, KS

9:39 PM MST on February 12, 2016 (GMT -0700)
Renner-Goodland Municipal

Weather History for KGLD - April, 2013

Change the Weather History Date:

Saturday, April 27, 2013

  Actual Average Record
Temperature  
Mean Temperature 61 °F 53 °F  
Max Temperature 80 °F 67 °F 90 °F (1953)
Min Temperature 41 °F 39 °F 22 °F (1994)
Degree Days  
Heating Degree Days 4 12  
Month to date heating degree days 610 444  
Since 1 July heating degree days 5740 5619  
Cooling Degree Days 0 0  
Month to date cooling degree days 0 0  
Year to date cooling degree days 0 0  
Growing Degree Days 12 (Base 50)    
Moisture  
Dew Point 27 °F    
Average Humidity 43    
Maximum Humidity 77    
Minimum Humidity 8    
Precipitation  
Precipitation 0.00 in 0.06 in 0.84 in (1922)
Month to date precipitation 0.79 1.40  
Year to date precipitation 3.09 3.34  
Snow  
Snow 0.00 in 0.10 in - ()
Month to date snowfall 12.7 4.1  
Since 1 July snowfall 55.7 34.9  
Snow Depth 0.00 in    
Sea Level Pressure  
Sea Level Pressure 30.00 in    
Wind  
Wind Speed 8 mph (WSW)    
Max Wind Speed 21 mph    
Max Gust Speed 25 mph    
Visibility 10 miles    
Events      
T = Trace of Precipitation, MM = Missing Value Source: NWS Daily Summary

Daily Weather History Graph

Daily Weather History Graph

Search for Another Location

Airport or City:

Trip Planner

Search our weather history database for the weather conditions in past years. The results will help you decide how hot, cold, wet, or windy it might be!

Date:

Astronomy

Apr. 27, 2013 Rise Set
Actual Time 5:52 AM MDT 7:36 PM MDT
Civil Twilight 5:24 AM MDT 8:05 PM MDT
Nautical Twilight 4:49 AM MDT 8:40 PM MDT
Astronomical Twilight 4:12 AM MDT 9:17 PM MDT
Moon 10:07 PM MDT (4/27) 7:13 AM MDT (4/27)
Length of Visible Light 14h 41m
Length of Day
13h 43m
Waning Gibbous, 95% of the Moon is Illuminated
Apr 27
Waning Gibbous
May 2
Last Quarter
May 9
New
May 17
First Quarter
May 24
Full

Hourly Weather History & Observations

Time (MDT) Temp. Windchill Dew Point Humidity Pressure Visibility Wind Dir Wind Speed Gust Speed Precip Events Conditions
12:53 AM 48.9 °F - 41.0 °F 74% 30.12 in 10.0 mi South 10.4 mph - N/A   Clear
1:53 AM 51.1 °F - 39.0 °F 63% 30.11 in 10.0 mi SSW 8.1 mph - N/A   Clear
2:53 AM 43.0 °F 38.8 °F 35.1 °F 74% 30.11 in 10.0 mi SW 6.9 mph - N/A   Clear
3:53 AM 43.0 °F 38.2 °F 34.0 °F 71% 30.09 in 10.0 mi SW 8.1 mph - N/A   Clear
4:53 AM 43.0 °F 37.7 °F 34.0 °F 71% 30.09 in 10.0 mi SW 9.2 mph - N/A   Clear
5:53 AM 44.1 °F 39.0 °F 35.1 °F 71% 30.09 in 10.0 mi SW 9.2 mph - N/A   Clear
6:53 AM 46.9 °F - 35.1 °F 63% 30.10 in 10.0 mi WSW 10.4 mph - N/A   Partly Cloudy
7:53 AM 55.0 °F - 37.9 °F 53% 30.09 in 10.0 mi SW 10.4 mph - N/A   Partly Cloudy
8:53 AM 64.0 °F - 39.0 °F 40% 30.08 in 10.0 mi WSW 16.1 mph - N/A   Scattered Clouds
9:53 AM 69.1 °F - 34.0 °F 27% 30.06 in 10.0 mi SW 11.5 mph - N/A   Mostly Cloudy
10:53 AM 72.0 °F - 26.1 °F 18% 30.05 in 10.0 mi WSW 11.5 mph 18.4 mph N/A   Clear
11:53 AM 73.9 °F - 15.1 °F 11% 30.03 in 10.0 mi SW 6.9 mph - N/A   Partly Cloudy
12:53 PM 75.0 °F - 21.0 °F 13% 29.99 in 10.0 mi Variable 5.8 mph - N/A   Partly Cloudy
1:53 PM 75.9 °F - 14.0 °F 10% 29.95 in 10.0 mi SW 5.8 mph - N/A   Clear
2:53 PM 78.1 °F - 16.0 °F 10% 29.94 in 10.0 mi West 10.4 mph 24.2 mph N/A   Clear
3:53 PM 79.0 °F - 14.0 °F 9% 29.91 in 10.0 mi North 11.5 mph - N/A   Clear
4:53 PM 78.1 °F - 14.0 °F 9% 29.89 in 10.0 mi WNW 9.2 mph - N/A   Clear
5:53 PM 77.0 °F - 12.9 °F 9% 29.89 in 10.0 mi WNW 8.1 mph - N/A   Clear
6:53 PM 72.0 °F - 21.9 °F 15% 29.89 in 10.0 mi NNW 6.9 mph - N/A   Clear
7:53 PM 61.0 °F - 23.0 °F 23% 29.89 in 10.0 mi Calm Calm - N/A   Clear
8:53 PM 55.0 °F - 26.1 °F 33% 29.89 in 10.0 mi West 5.8 mph - N/A   Clear
9:53 PM 50.0 °F - 27.0 °F 41% 29.90 in 10.0 mi West 6.9 mph - N/A   Clear
10:53 PM 48.9 °F - 28.0 °F 44% 29.90 in 10.0 mi ESE 3.5 mph - N/A   Clear
11:53 PM 45.0 °F 41.2 °F 28.0 °F 52% 29.90 in 10.0 mi WSW 6.9 mph - N/A   Clear